Longview, TX

2:30 AM CST on January 20, 2018 (GMT -0600)
Gregg County

Weather History for KGGG - June, 2013

Change the Weather History Date:

Sunday, June 23, 2013

  Actual Average Record
Temperature  
Mean Temperature 85 °F 81 °F  
Max Temperature 97 °F 91 °F 104 °F (1953)
Min Temperature 73 °F 71 °F 58 °F (1902)
Degree Days  
Heating Degree Days 0 0  
Month to date heating degree days 0 0  
Since 1 June heating degree days 0 0  
Since 1 July heating degree days 2062 2258  
Cooling Degree Days 20 16  
Month to date cooling degree days 365 322  
Year to date cooling degree days 753 701  
Since 1 June cooling degree days 365 322  
Growing Degree Days 34 (Base 50)    
Moisture  
Dew Point 69 °F    
Average Humidity 61    
Maximum Humidity 87    
Minimum Humidity 34    
Precipitation  
Precipitation 0.00 in 0.18 in 2.60 in (1921)
Month to date precipitation 0.95 3.87  
Year to date precipitation 18.15 23.60  
Snow  
Snow 0.00 in - - ()
Month to date snowfall 0.0  
Since 1 June snowfall 0.0  
Since 1 July snowfall 0.8  
Snow Depth 0.00 in    
Sea Level Pressure  
Sea Level Pressure 29.97 in    
Wind  
Wind Speed 9 mph (SSE)    
Max Wind Speed 16 mph    
Max Gust Speed 25 mph    
Visibility 10 miles    
Events      
T = Trace of Precipitation, MM = Missing Value Source: NWS Daily Summary

Daily Weather History Graph

Daily Weather History Graph

Search for Another Location

Airport or City:

Trip Planner

Search our weather history database for the weather conditions in past years. The results will help you decide how hot, cold, wet, or windy it might be!

Date:

Astronomy

Jun. 23, 2013 Rise Set
Actual Time 6:12 AM CDT 8:29 PM CDT
Civil Twilight 5:44 AM CDT 8:57 PM CDT
Nautical Twilight 5:09 AM CDT 9:32 PM CDT
Astronomical Twilight 4:31 AM CDT 10:10 PM CDT
Moon 8:47 PM CDT (6/23) 6:27 AM CDT (6/23)
Length of Visible Light 15h 13m
Length of Day
14h 16m
Full, 100% of the Moon is Illuminated
Jun 23
Full
Jun 29
Last Quarter
Jul 8
New
Jul 15
First Quarter
Jul 22
Full

Hourly Weather History & Observations

Time (CDT) Temp. Heat Index Dew Point Humidity Pressure Visibility Wind Dir Wind Speed Gust Speed Precip Events Conditions
12:53 AM 79.0 °F - 71.1 °F 77% 29.97 in 10.0 mi South 5.8 mph - N/A   Clear
1:53 AM 78.1 °F - 71.1 °F 79% 29.96 in 10.0 mi South 8.1 mph - N/A   Clear
2:53 AM 77.0 °F - 71.1 °F 82% 29.96 in 10.0 mi South 5.8 mph - N/A   Clear
3:53 AM 75.9 °F - 71.1 °F 85% 29.96 in 10.0 mi South 6.9 mph - N/A   Clear
4:53 AM 75.9 °F - 71.1 °F 85% 29.96 in 10.0 mi South 6.9 mph - N/A   Clear
5:53 AM 73.9 °F - 70.0 °F 87% 29.97 in 10.0 mi South 4.6 mph - N/A   Clear
6:53 AM 75.0 °F - 71.1 °F 87% 29.98 in 9.0 mi SSE 6.9 mph - N/A   Clear
7:53 AM 78.1 °F - 72.0 °F 81% 29.99 in 10.0 mi South 5.8 mph - N/A   Clear
8:53 AM 82.0 °F 87.4 °F 73.0 °F 74% 30.01 in 10.0 mi South 9.2 mph - N/A   Partly Cloudy
9:53 AM 86.0 °F 92.2 °F 72.0 °F 63% 30.01 in 10.0 mi South 9.2 mph - N/A   Scattered Clouds
10:53 AM 87.1 °F 92.0 °F 70.0 °F 57% 30.02 in 10.0 mi South 12.7 mph 17.3 mph N/A   Scattered Clouds
11:53 AM 90.0 °F 95.4 °F 70.0 °F 52% 30.01 in 10.0 mi South 11.5 mph - N/A   Scattered Clouds
12:53 PM 91.0 °F 95.2 °F 68.0 °F 47% 29.99 in 10.0 mi South 10.4 mph 19.6 mph N/A   Scattered Clouds
1:53 PM 91.9 °F 95.4 °F 66.9 °F 44% 29.97 in 10.0 mi Variable 6.9 mph 17.3 mph N/A   Scattered Clouds
2:53 PM 93.9 °F 97.5 °F 66.9 °F 41% 29.95 in 10.0 mi South 12.7 mph 19.6 mph N/A   Partly Cloudy
3:53 PM 95.0 °F 96.0 °F 63.0 °F 34% 29.94 in 10.0 mi SSW 9.2 mph 17.3 mph N/A   Scattered Clouds
4:53 PM 96.1 °F 98.3 °F 64.0 °F 35% 29.93 in 10.0 mi SE 15.0 mph 19.6 mph N/A   Scattered Clouds
5:53 PM 93.9 °F 97.0 °F 66.0 °F 40% 29.91 in 10.0 mi SSE 10.4 mph - N/A   Clear
6:53 PM 91.9 °F 94.5 °F 66.0 °F 42% 29.92 in 10.0 mi SSE 10.4 mph - N/A   Clear
7:53 PM 89.1 °F 92.1 °F 66.9 °F 48% 29.92 in 10.0 mi SSE 9.2 mph - N/A   Clear
8:53 PM 84.0 °F 87.0 °F 68.0 °F 58% 29.93 in 10.0 mi SE 4.6 mph - N/A   Clear
9:53 PM 82.9 °F 87.0 °F 70.0 °F 65% 29.95 in 10.0 mi SE 6.9 mph - N/A   Clear
10:53 PM 82.0 °F 86.3 °F 71.1 °F 69% 29.97 in 10.0 mi SSE 5.8 mph - N/A   Clear
11:53 PM 82.0 °F 86.3 °F 71.1 °F 69% 29.98 in 10.0 mi SE 8.1 mph - N/A   Clear